Location: ????????
(48.4751°N, 37.6926°E)
Time: 02:36:05
(UTC+00:00)

Cosmos 1844 Rocket - Pass Details

Date: 20 January 2021
Orbit: 825 x 843 km, 71.0° (Epoch: 24 February)

Event Time Altitude Azimuth Distance (km) Brightness Sun altitude
Rises 16:27:10 0° 209° (SSW) 3,389 6.3 -22.5°
Reaches altitude 10° 16:29:36 10° 210° (SSW) 2,457 5.5 -22.9°
Maximum altitude 16:35:16 82° 298° (WNW) 857 2.7 -23.8°
Enters shadow 16:37:51 34° 22° (NNE) 1,360 3.5 -24.2°
